139  
ASGM40 PGUM 200710  
RWRGUM  
WEATHER ROUNDUP FOR THE MARIANAS  
NATIONAL WEATHER SERVICE TIYAN GU  
500 PM CHST WED MAR 20 2019  
 
GUZ001>004-200800-  
MARIANA ISLANDS-  
 
CITY SKY/WX TMP DP RH WIND PRES REMARKS
 
GUAM AIRPORT PTSUNNY 84 72 65 NE14 29.83R  
ANDERSEN AFB PTSUNNY 81 72 74 NE13 29.83S  
ROTA AIRPORT MOSUNNY 79 73 83 NE15 29.82R  
TINIAN AP MOSUNNY 82 73 74 E16 29.81S  
SAIPAN AP MOSUNNY 82 72 69 NE14 29.83R  
 

 
 
 
 
CLICK HERE TO GO TO PREVIOUS BULLETINS.

The Nexlab GU Page Main Text Page